Weather in Keri

Greece     37°39′35″N   20°48′56″E
temp.,
°C
wind,
m/s
gust,
m/s
humid.,
%
clouds,
%
prec.,
mm/h
press.,
hPa
HPBL,
m
24 september, fri
fri2400:00+20ne23621 0.0 1018532
03:00+20ne34580 0.0 1018389
06:00+19n33610 0.0 1018319
09:00+20nne22570 0.0 1019377
12:00+22wnw22510 0.0 10201027
15:00+23wnw44520 0.0 10191185
18:00+22wnw545643 0.0 10191012
21:00+21nw55609 0.0 1019584
25 september, sat
sat2500:00+21nw56610 0.0 1020545
03:00+20nnw33650 0.0 1019370
06:00+19nw22664 0.0 1019285
09:00+21nne11600 0.0 1019306
12:00+24nw22500 0.0 1021739
15:00+24wnw43540 0.0 1020715
18:00+23nw55590 0.0 1020499
21:00+22nw45670 0.0 1020308
26 september, sun
sun2600:00+21nnw11680 0.0 1021207
03:00+20se12710 0.0 1020188
06:00+20nnw11730 0.0 1020122
09:00+22nnw22640 0.0 1020234
12:00+25wnw21480 0.0 1020512
15:00+27wnw32460 0.0 1019724
18:00+25nw33540 0.0 1018399
21:00+23nw34635 0.0 1019185
27 september, mon
mon2700:00+22wnw11686 0.0 1018146
03:00+22nnw017020 0.0 1018126
06:00+21nnw226756 0.0 1017106
09:00+23nw11625 0.0 1016188
12:00+26wnw33510 0.0 1017561
15:00+26wnw55620 0.0 1016563
18:00+24wnw55730 0.0 1015439
21:00+23wnw45835 0.0 1016261
28 september, tue
tue2800:00+23wnw128350 0.0 1015137
03:00+22w2285100 0.0 1015189
06:00+22wsw118774 0.0 1014119
09:00+23s2285100 0.0 1014268
12:00+25sse327364 0.0 1014629
15:00+26s437243 0.0 1013740
18:00+25sse327512 0.1 1013555
21:00+23ene22833 2.6 101365